This is the latest recevied weather packets stored in our database for station/object N1UNH. If no packets are shown the sender has not sent any weather packets the latest 10 day(s).
| Time | Temp. | Humidity | Pressure | Rain* | Wind** | Luminosity | Snow |
|---|---|---|---|---|---|---|---|
| 1778156517 | 8.89° C | 80% | 1013.3 hPa | 0 mm | - | 35 W/m² | - |
| 1778156213 | 8.33° C | 83% | 1013.4 hPa | 0 mm | - | 37 W/m² | - |
| 1778155909 | 8.33° C | 90% | 1013.5 hPa | 0 mm | - | 34 W/m² | - |
| 1778155606 | 8.33° C | 89% | 1013.6 hPa | 0 mm | - | 36 W/m² | - |
| 1778155303 | 8.33° C | 87% | 1013.5 hPa | 0 mm | - | 33 W/m² | - |
| 1778154999 | 8.33° C | 89% | 1013.8 hPa | 0 mm | - | 36 W/m² | - |
| 1778154694 | 7.78° C | 88% | 1013.8 hPa | 0 mm | - | 34 W/m² | - |
| 1778154390 | 7.78° C | 88% | 1013.8 hPa | 0 mm | - | 46 W/m² | - |
| 1778154088 | 7.78° C | 89% | 1013.4 hPa | 0 mm | - | 37 W/m² | - |
| 1778153785 | 7.78° C | 89% | 1013.4 hPa | 0 mm | - | 55 W/m² | - |
| 1778153482 | 7.22° C | 92% | 1013.8 hPa | 0 mm | - | 35 W/m² | - |
| 1778153180 | 7.22° C | 95% | 1013.5 hPa | 0 mm | - | 30 W/m² | - |
| 1778152876 | 6.67° C | 95% | 1013.8 hPa | 0 mm | - | 29 W/m² | - |
| 1778152574 | 6.67° C | 95% | 1013.4 hPa | 0 mm | - | 28 W/m² | - |
| 1778152270 | 6.67° C | 96% | 1013.8 hPa | 0 mm | - | 27 W/m² | - |
| 1778151967 | 6.67° C | 96% | 1013.6 hPa | 0 mm | - | 26 W/m² | - |
| 1778151663 | 6.67° C | 96% | 1013.5 hPa | 0 mm | - | 25 W/m² | - |
| 1778151360 | 6.67° C | 96% | 1013.3 hPa | 0 mm | - | 25 W/m² | - |
| 1778151056 | 6.67° C | 95% | 1013 hPa | 0 mm | - | 24 W/m² | - |
| 1778150754 | 6.67° C | 95% | 1012.9 hPa | 0 mm | - | 23 W/m² | - |
| 1778150450 | 6.11° C | 95% | 1013 hPa | 0 mm | - | 22 W/m² | - |
| 1778150146 | 6.67° C | 95% | 1013.1 hPa | 0 mm | - | 20 W/m² | - |
| 1778149843 | 6.67° C | 95% | 1013.2 hPa | 0 mm | - | 19 W/m² | - |
| 1778149539 | 6.67° C | 95% | 1013.1 hPa | 0 mm | - | 17 W/m² | - |
| 1778149236 | 6.67° C | 94% | 1013.3 hPa | 0 mm | - | 14 W/m² | - |
* Rain latest hour (hover to see other rain measurements)
** Current wind speed in m/s (hover to see current wind gust speed)